{"data":{"norad_id":63708,"epoch":"2026-09-20T19:46:00.557184Z","epoch_age_seconds":124365,"freshness":"FRESH","line1":"1 63708U 25087M   26263.82361756  .00015660  00000+0  47352-3 0  9994","line2":"2 63708  53.1609  31.8973 0001739  70.6246 289.4945 15.34409127 79098","mean_motion":15.34409127,"eccentricity":0.0001739,"inclination_deg":53.1609,"raan_deg":31.8973,"arg_perigee_deg":70.6246,"mean_anomaly_deg":289.4945,"bstar":0.00047352,"rev_number":7909,"period_min":93.84719985441,"perigee_km":461.4864955738,"apogee_km":463.86573037449,"semimajor_km":6840.8131129741,"source":"CELESTRAK","updated_at":"2026-09-21T09:00:35.064307Z"}}